Vertical_Velocity
1 -1 3 -0 -0 0 -0 4 -6 -6 -6 -2 -1 -3 -2 -4 -1 -3 -2 -2 1 1 0 3 1 1 2 -0 4 5 3 -4 -6 2 9 -11 10 24 1 1 16 19 -3 36
-12 -3 -0 -3 -1 2 -1 2 -4 2 -14 1 -1 -3 -2 -0 -4 -1 -3 -1 -1 -2 4 0 -1 -1 -2 -1 2 3 -11 10 2 5 7 7 -11 7 6 -19 20 45 -8 -4
-4 -1 2 -2 -3 -2 -2 1 2 0 2 -1 -2 -2 -3 -2 0 -4 -1 -3 -2 -3 -1 -2 -6 1 -0 -6 3 -1 14 0 14 11 -1 -11 -2 -12 -6 13 6 4 -2 -4
-6 -3 2 -3 -3 -1 -2 2 -1 -1 -2 -0 -2 -1 -1 -4 -2 -1 -3 -0 -4 1 2 -1 4 4 -7 1 4 3 5 -1 9 11 10 8 18 4 1 2 0 -5 3 9
1 -2 -15 -8 -3 -3 1 -9 -2 -5 -1 -2 -0 -3 -2 -1 -3 -1 -1 -2 -0 -5 -3 2 -1 -2 -1 0 2 -1 -6 -3 -4 2 -2 -2 1 -4 -5 1 -2 5 -3 3
0 2 -0 -2 1 -0 -1 -10 -3 -2 1 1 -0 -3 1 -2 -2 -2 -0 -1 -1 3 -4 -2 -0 0 1 4 -1 -6 -1 3 6 2 2 -0 -5 0 -0 -3 1 -6 -16 -11
1 -3 -9 2 1 -0 -1 -3 -1 -2 1 -5 2 -1 -2 -3 -3 -2 -2 -1 -1 -2 -0 -3 -1 2 1 2 1 -4 -7 0 5 1 1 3 -1 -3 4 2 -1 -5 -7 -6
1 1 -8 5 1 -1 1 -1 1 -1 -1 -2 -2 1 -3 -1 -3 -3 -3 -2 -1 -1 -3 -2 -1 -4 -4 -1 0 1 -2 2 -1 0 10 -0 4 5 4 -1 -3 2 -3 2
-6 -11 0 -4 1 4 0 1 1 0 -1 0 -1 -0 -1 -2 -2 -2 -3 -2 -2 -1 -1 1 -1 -3 3 1 -4 1 2 -1 -1 3 -3 0 6 2 9 4 -1 2 -2 -0
3 3 3 6 6 4 -0 1 1 -1 -1 1 -1 -2 -1 -1 -1 -2 -2 -1 -2 -3 -1 -1 -1 -1 -2 0 -1 2 4 -0 0 1 -1 2 6 1 3 3 2 1 3 1
-7 0 -3 1 -1 -2 3 -1 0 -3 -2 1 -1 1 -2 -1 -1 -3 -1 -3 -0 -0 -2 -3 -1 1 -0 -1 -0 2 2 2 -2 -0 1 -2 -2 1 1 2 -0 -1 1 1
-3 3 -3 2 -2 -1 2 -2 -1 -1 -2 -2 -1 -2 -2 -1 -1 -2 -2 -1 -2 0 0 -2 -1 -2 -3 -3 -5 -2 1 3 1 -1 0 -3 -4 -3 2 -1 -0 -1 1 0
-1 -1 1 -1 -1 -1 1 -1 0 0 -1 -2 -2 -2 -3 -2 -1 -0 -1 -0 -1 -3 -1 1 -1 1 2 -0 -2 -1 -6 -7 -2 -5 -5 1 -1 -1 0 1 -0 -0 3 0
-0 -3 1 1 -4 1 0 -0 1 0 -1 0 -1 -3 -1 -1 -1 -1 -1 -2 0 -1 -1 -1 1 1 1 2 1 1 2 4 -1 -3 -1 2 -1 -3 -2 1 -2 -2 0 -2
0 -2 -1 -3 3 1 0 0 1 1 -1 1 -0 -3 -1 0 -1 -1 -2 -2 -2 1 1 -1 -2 -3 -0 -0 1 1 -0 -2 -1 6 -2 -0 -0 -4 -1 -0 -1 -3 1 2
0 -0 -2 -4 6 3 -2 2 -1 2 -2 2 -0 -2 -0 -1 0 -2 -3 -0 -1 1 0 -3 0 -2 -0 -1 -1 -2 -0 3 2 -2 -6 -3 2 6 -0 -1 2 -2 -4 -1
-3 1 1 -0 1 3 2 2 -0 1 0 2 -0 -1 -2 -1 -1 -2 -3 -0 1 -1 -2 0 3 -3 1 -1 -0 -0 -2 -5 -6 -4 -4 -1 -0 0 -4 -0 -3 0 -1 3
-3 1 1 1 1 -0 2 2 2 -0 2 1 1 -0 -1 -2 -1 -2 -3 -1 0 -0 -1 1 0 -1 0 0 0 -0 0 1 1 1 2 3 1 1 -1 -2 5 -4 -1 -1
-2 -0 1 2 -1 1 2 3 0 0 1 1 0 -2 -2 -2 -1 -1 -2 -1 -0 1 -2 -1 0 -2 1 1 -1 -1 -1 -1 -1 -0 -1 -0 -0 -1 -3 -4 -1 -1 -4 -1
1 1 2 0 0 1 2 1 0 0 1 1 0 -1 -1 -1 -0 -0 -0 -1 -0 -0 -0 -1 -1 0 1 0 -0 -1 -1 -1 -2 -2 -2 -2 -2 -0 -0 -0 -0 -1 -5 -3
2 2 2 -0 0 0 0 1 1 0 1 -0 1 1 -1 -1 0 -1 0 -1 -0 -0 0 -0 0 -1 -1 -0 -0 -3 -0 0 -1 -1 -2 -2 -2 -2 -2 -2 -2 -3 -3 0
1 2 1 1 -0 1 -0 1 0 -0 -0 0 1 0 -0 -1 -1 -1 -0 -0 0 0 0 -1 0 -0 -1 -1 -1 0 -0 -0 -0 -0 0 -1 -2 -2 -1 -1 -0 -0 -0 -1
1 1 1 0 -0 1 -0 0 0 -0 -1 0 0 -0 -0 -0 -1 -1 -1 1 -0 -0 1 1 0 0 0 -2 -2 -0 -0 -0 1 0 0 0 -0 -1 -1 -1 -1 -1 -0 0
2 3 1 -1 0 0 -1 1 1 -1 -0 0 -0 -1 -0 -0 -1 -1 -1 0 0 -1 -0 2 -1 -1 -3 -1 0 -0 1 2 2 1 1 0 -0 -1 -1 -1 -1 -1 -0 -1
3 3 -0 -0 0 0 -0 1 0 -1 1 1 -0 -0 -0 -0 -1 -0 -1 -0 -0 -1 1 -0 -0 -2 1 0 -0 -2 -2 -2 -1 -1 -1 -0 -0 1 1 0 1 -0 -2 -1
2 1 -1 1 1 0 0 1 -1 -1 0 -0 -1 -1 -0 0 -1 -1 -0 0 -0 -1 0 0 0 -0 -1 -1 -0 1 0 -1 -2 -2 -3 -0 -0 -1 -1 -0 -0 -0 -1 -1
2 -1 1 1 0 0 1 0 -2 -0 0 -0 -1 -1 -0 -0 -1 -0 -0 -0 0 0 0 -0 -0 -1 -1 0 -1 -1 -0 0 0 -0 -0 -2 -1 0 -1 -1 -1 -1 -1 -1
Height
3031 3027 3023 3019 3016 3013 3009 3007 3004 2993 2987 2981 2977 2972 2970 2966 2963 2960 2956 2954 2951 2948 2948 2947 2946 2949 2952 2954 2956 2959 2961 2966 2970 2976 2982 2989 2998 3002 3011 3018 3026 3034 3041 3045
3022 3020 3017 3012 3010 3007 3004 3001 2995 2990 2983 2980 2974 2969 2966 2963 2960 2958 2954 2952 2950 2948 2945 2945 2944 2945 2950 2953 2955 2957 2959 2961 2965 2970 2975 2981 2988 2996 2999 3003 3013 3016 3029 3036
3019 3015 3012 3008 3004 3002 2999 2995 2991 2986 2982 2977 2972 2967 2963 2961 2958 2955 2952 2950 2949 2946 2945 2943 2944 2944 2946 2948 2952 2954 2956 2958 2963 2965 2970 2976 2982 2987 2994 2996 3001 3009 3017 3026
3019 3014 3008 3000 3000 2997 2994 2989 2986 2982 2978 2973 2968 2964 2960 2956 2953 2950 2948 2946 2945 2944 2943 2942 2941 2941 2942 2944 2947 2949 2950 2954 2957 2960 2966 2972 2975 2981 2987 2987 2992 3000 3005 3012
3021 3015 3002 2995 2994 2993 2988 2983 2981 2978 2974 2969 2964 2960 2956 2953 2949 2946 2944 2943 2942 2941 2940 2939 2938 2938 2940 2940 2942 2944 2947 2950 2953 2956 2960 2966 2969 2974 2981 2984 2987 2991 2993 3000
3019 3016 3001 2991 2989 2987 2983 2978 2976 2973 2969 2966 2961 2956 2954 2949 2945 2942 2939 2938 2938 2937 2937 2935 2935 2935 2935 2936 2938 2940 2941 2945 2948 2950 2953 2960 2967 2971 2975 2977 2980 2983 2988 2995
3014 3011 2994 2989 2987 2984 2983 2982 2973 2970 2966 2961 2957 2953 2948 2944 2941 2939 2936 2934 2933 2933 2933 2932 2932 2932 2932 2931 2933 2936 2938 2939 2942 2944 2947 2951 2957 2962 2966 2968 2971 2977 2982 2987
3006 3005 2992 2986 2983 2983 2980 2974 2969 2965 2961 2956 2952 2948 2944 2940 2937 2934 2932 2930 2929 2929 2929 2929 2929 2929 2929 2929 2929 2931 2934 2934 2935 2938 2938 2943 2950 2953 2956 2959 2965 2971 2976 2980
3003 2993 2988 2985 2981 2977 2973 2969 2964 2960 2955 2951 2948 2944 2939 2936 2933 2931 2927 2926 2925 2924 2924 2924 2925 2925 2926 2925 2926 2926 2927 2929 2930 2932 2934 2939 2942 2946 2948 2952 2957 2961 2966 2972
2993 2990 2985 2981 2977 2973 2968 2964 2960 2955 2951 2946 2943 2939 2935 2931 2929 2926 2924 2921 2920 2920 2920 2920 2921 2921 2921 2922 2922 2922 2922 2924 2924 2928 2931 2933 2935 2938 2941 2943 2948 2953 2957 2962
2983 2983 2979 2976 2972 2968 2963 2959 2955 2950 2946 2942 2938 2934 2930 2926 2923 2921 2919 2917 2916 2916 2916 2916 2917 2917 2917 2917 2918 2918 2917 2918 2920 2923 2925 2927 2928 2930 2934 2936 2940 2945 2950 2954
2978 2976 2973 2970 2966 2961 2957 2953 2949 2945 2941 2936 2932 2929 2925 2921 2918 2915 2913 2912 2911 2910 2911 2911 2912 2913 2913 2914 2914 2914 2914 2914 2914 2915 2917 2920 2922 2925 2927 2931 2934 2937 2940 2944
2975 2971 2967 2964 2960 2955 2951 2946 2942 2938 2934 2930 2926 2923 2919 2916 2912 2909 2907 2905 2904 2904 2905 2906 2907 2908 2909 2910 2910 2910 2911 2911 2912 2912 2914 2915 2917 2918 2919 2923 2926 2929 2931 2933
2968 2965 2962 2957 2953 2948 2944 2940 2936 2932 2928 2924 2920 2917 2913 2909 2906 2903 2900 2898 2897 2898 2899 2900 2901 2903 2904 2904 2905 2906 2907 2908 2909 2910 2910 2910 2911 2913 2914 2916 2919 2921 2923 2925
2962 2958 2955 2950 2945 2940 2936 2932 2929 2925 2921 2917 2913 2910 2906 2902 2899 2895 2892 2891 2891 2891 2892 2894 2895 2897 2898 2900 2901 2901 2902 2903 2904 2904 2906 2908 2908 2910 2910 2910 2911 2914 2916 2917
2956 2952 2947 2942 2938 2933 2927 2925 2921 2917 2913 2910 2907 2903 2900 2896 2892 2888 2886 2885 2885 2885 2885 2887 2890 2891 2893 2894 2896 2897 2897 2898 2898 2897 2899 2901 2902 2901 2902 2905 2906 2907 2909 2912
2947 2944 2940 2936 2930 2925 2920 2916 2913 2909 2905 2902 2899 2896 2893 2889 2885 2882 2880 2879 2879 2879 2879 2882 2884 2885 2888 2889 2891 2892 2892 2893 2893 2894 2895 2895 2894 2894 2895 2897 2899 2900 2901 2903
2941 2936 2932 2926 2920 2916 2912 2908 2905 2901 2897 2894 2892 2889 2886 2883 2879 2876 2875 2874 2873 2874 2874 2877 2878 2880 2882 2884 2885 2885 2886 2887 2888 2888 2888 2888 2887 2887 2888 2890 2891 2892 2894 2896
2932 2928 2924 2918 2912 2907 2904 2900 2896 2893 2890 2887 2885 2882 2879 2875 2872 2870 2869 2869 2868 2868 2869 2870 2872 2874 2876 2877 2878 2878 2879 2879 2879 2879 2879 2879 2879 2880 2881 2882 2883 2884 2887 2889
2924 2920 2915 2910 2904 2899 2895 2892 2888 2885 2882 2879 2877 2875 2871 2868 2866 2864 2864 2864 2864 2864 2864 2865 2866 2868 2869 2870 2871 2871 2871 2872 2871 2871 2871 2871 2872 2873 2873 2874 2875 2876 2878 2881
2916 2911 2907 2902 2896 2891 2887 2884 2880 2877 2874 2872 2870 2867 2864 2861 2860 2859 2858 2858 2859 2859 2860 2860 2862 2862 2863 2864 2864 2864 2864 2865 2865 2865 2865 2865 2865 2866 2867 2868 2869 2870 2871 2872
2908 2904 2899 2893 2888 2884 2880 2876 2873 2870 2867 2865 2863 2860 2857 2855 2854 2853 2853 2854 2854 2855 2855 2856 2856 2857 2857 2857 2858 2857 2857 2857 2857 2857 2858 2858 2858 2859 2860 2861 2862 2862 2863 2864
2900 2895 2890 2884 2880 2876 2873 2869 2865 2862 2860 2858 2856 2853 2851 2849 2849 2848 2848 2849 2849 2849 2850 2851 2851 2851 2851 2850 2850 2850 2850 2849 2849 2849 2849 2850 2850 2851 2851 2852 2853 2854 2855 2855
2891 2887 2882 2876 2872 2869 2865 2861 2858 2855 2853 2851 2849 2847 2845 2844 2844 2843 2844 2844 2844 2844 2844 2845 2844 2844 2843 2843 2842 2842 2841 2841 2841 2840 2840 2840 2840 2841 2841 2842 2843 2844 2845 2846
2882 2878 2873 2869 2866 2862 2858 2854 2851 2848 2846 2845 2843 2842 2841 2840 2840 2840 2839 2839 2839 2839 2838 2837 2837 2835 2835 2835 2834 2833 2832 2831 2831 2830 2830 2830 2830 2830 2831 2832 2833 2834 2835 2836
2874 2869 2865 2862 2859 2854 2850 2847 2845 2843 2841 2839 2839 2838 2837 2837 2836 2836 2835 2835 2834 2833 2832 2830 2829 2828 2826 2825 2824 2823 2822 2821 2820 2820 2819 2820 2820 2820 2821 2821 2823 2824 2825 2826
2865 2861 2858 2855 2851 2847 2844 2841 2839 2837 2836 2835 2835 2834 2834 2834 2833 2832 2831 2830 2829 2828 2826 2824 2822 2820 2819 2817 2815 2813 2812 2811 2810 2809 2809 2808 2809 2810 2811 2811 2812 2813 2814 2816